Terminal Aerodrome Forecast
Issued by NWS Wilmington, OH

Current Version | Previous Version | Text Only | Print | Product List | Glossary Off
Versions: 1 2 3 4 5 6 7 8 9 10 11 12 13 14 15 16 17 18 19 20 21 22 23

000
FTUS41 KILN 252324
TAFCVG
TAF
KCVG 252324Z 2600/2706 29004KT P6SM SCT250
     FM260900 VRB02KT 4SM BR SCT015
     FM261400 28005KT P6SM SCT040
     FM270000 05004KT P6SM SCT250=

USA.gov is the U.S. government's official web portal to all federal, state and local government web resources and services.